SCP
1 1 1 0 0 0 0 0 0 0 0 0 0 0 0 0 0 0 0 0 0 0 0 0 0 0 0 0 0 0 0 0 0 0 0 0 0 0 0 0 0 0 0
1 1 1 0 0 0 0 0 0 0 0 0 0 0 0 0 0 0 0 0 0 0 0 0 0 0 0 0 0 0 0 0 0 0 0 0 0 0 0 0 0 0 0
0 0 0 0 0 0 0 0 0 0 0 0 0 0 0 0 0 0 0 0 0 0 0 0 0 0 0 0 0 0 0 0 0 0 0 0 0 0 0 0 0 0 0
0 0 0 0 0 0 0 0 0 0 0 0 0 0 0 0 0 0 0 0 0 0 0 0 0 0 0 0 0 0 0 0 0 0 0 0 0 0 0 0 0 0 0
0 0 0 0 0 0 0 0 0 0 0 0 0 0 0 0 0 0 0 0 0 0 0 0 0 0 0 0 0 0 0 0 0 0 0 0 0 0 0 0 0 0 0
0 0 0 0 0 0 0 0 0 0 0 0 0 0 0 0 0 0 0 0 0 0 0 0 0 0 0 0 0 0 0 0 0 0 0 0 0 0 0 0 0 0 0
0 0 0 0 0 0 0 0 0 0 0 0 0 0 0 0 0 0 0 0 0 0 0 0 0 0 0 0 0 0 0 0 0 0 0 0 0 0 0 0 0 0 0
0 0 0 0 0 0 0 0 0 0 0 0 0 0 0 0 0 0 0 0 0 0 0 0 0 0 0 0 0 0 0 0 0 0 0 0 0 0 0 0 0 0 0
0 0 0 0 0 0 0 0 0 0 0 0 0 0 0 0 0 0 0 0 0 0 0 0 0 0 0 0 0 0 0 0 0 0 0 0 0 0 0 0 0 0 0
0 0 0 0 0 0 0 0 0 0 0 0 0 0 0 0 0 0 0 0 0 0 0 0 0 0 0 0 0 0 0 0 0 0 0 0 0 0 0 0 0 0 0
0 0 0 0 0 0 0 0 0 0 0 0 0 0 0 0 0 0 0 0 0 0 0 0 0 0 0 0 0 0 0 0 0 0 0 0 0 0 0 0 0 0 0
0 0 0 0 0 0 0 0 0 0 0 0 0 0 0 0 0 0 0 0 0 0 0 0 0 0 0 0 0 0 0 0 0 0 0 0 0 0 0 0 0 0 0
0 0 0 0 0 0 0 0 0 0 0 0 0 0 0 0 0 0 0 0 0 0 -0 -0 0 0 0 0 0 0 0 0 0 0 0 0 0 0 0 0 0 0 0
0 0 0 0 0 0 0 0 0 0 0 0 0 0 0 0 -0 0 0 0 0 -0 -0 -0 -0 0 0 0 0 0 0 0 0 0 0 0 0 0 0 0 0 0 0
0 0 0 0 0 0 0 0 0 0 0 0 0 0 0 0 0 -0 0 0 0 0 0 -0 -0 -0 -0 0 0 0 0 0 0 0 0 0 0 0 0 0 0 0 0
0 0 0 0 0 0 0 0 0 0 0 0 0 0 0 0 0 0 0 0 0 0 0 0 0 0 0 0 0 0 0 0 0 0 0 0 0 0 0 0 0 0 0
0 0 0 0 0 0 0 0 0 0 0 0 0 0 0 0 0 0 0 0 0 0 0 0 0 0 0 0 0 0 0 0 0 0 0 0 0 0 0 0 0 0 0
0 0 0 0 0 0 0 0 0 0 0 0 0 0 0 0 0 0 0 0 0 0 0 0 0 0 0 0 0 0 0 0 0 0 0 0 0 0 0 0 0 0 0
0 0 0 0 0 0 0 0 0 0 0 0 0 0 0 0 0 0 0 0 0 0 0 0 0 0 0 0 0 0 0 0 0 0 0 0 0 0 0 0 0 0 0
0 0 0 0 0 0 0 0 0 0 0 0 0 0 0 0 0 0 0 0 0 0 0 0 0 0 0 0 0 0 0 0 0 0 0 0 0 0 0 0 0 0 0
0 0 0 0 0 0 0 0 0 0 0 0 0 0 0 0 0 0 0 0 0 0 0 0 0 0 0 0 0 0 0 0 0 0 0 0 0 0 0 0 0 0 0
0 0 0 0 0 0 0 0 0 0 0 0 0 0 0 0 0 0 0 0 0 0 0 0 0 0 0 0 0 0 0 0 0 0 0 0 0 0 0 0 0 0 0
0 0 0 0 0 0 0 0 0 0 0 0 0 0 0 0 0 0 0 0 0 0 0 0 0 0 0 0 0 0 0 0 0 0 0 0 0 0 0 0 0 0 0
0 0 0 0 0 0 0 0 0 0 0 0 0 0 0 0 0 0 0 0 0 0 0 0 0 0 0 0 0 0 0 0 0 0 0 0 0 0 0 0 0 0 0
0 0 0 0 0 0 0 0 0 0 0 0 0 0 0 0 0 0 0 0 0 0 0 0 0 0 0 0 0 0 0 0 0 0 0 0 0 0 0 0 0 0 0
0 0 0 0 0 0 0 0 0 0 0 0 0 0 0 0 0 0 0 0 0 0 0 0 0 0 0 0 0 0 0 0 0 0 0 0 0 0 0 0 0 0 0
Wind_Speed
1 2 2 2 2 2 1 1 1 1 1 1 1 2 3 3 4 4 3 4 8 9 11 11 12 12 10 8 7 6 6 4 3 2 2 4 5 6 6 7 7 8 8
5 5 5 4 4 3 3 2 2 2 2 2 3 3 4 3 4 4 5 4 4 7 9 10 11 12 13 12 10 8 8 6 5 5 4 3 3 4 5 6 6 6 6
9 8 7 6 6 5 4 4 4 3 2 2 3 3 3 4 4 5 5 4 4 4 6 9 11 11 13 14 13 13 11 8 7 7 6 5 4 4 5 5 6 6 6
11 9 8 7 7 5 5 5 4 3 3 3 3 3 3 3 5 5 4 4 5 5 5 8 10 11 12 13 14 14 14 11 9 8 9 7 6 5 5 6 7 7 7
12 10 9 8 7 7 6 5 5 4 4 4 4 4 4 4 4 4 5 5 5 5 5 6 8 9 11 13 14 15 15 14 12 9 9 10 8 7 7 7 8 9 9
12 10 9 10 9 8 8 7 7 6 5 6 5 4 4 3 3 3 4 3 4 5 5 6 6 5 9 12 14 15 15 16 15 12 10 11 11 10 9 9 10 10 10
13 12 9 10 10 10 11 11 7 8 8 7 5 5 3 1 3 3 4 4 5 5 6 7 6 6 6 10 12 14 16 17 17 15 12 11 12 13 12 11 11 11 11
14 11 13 11 10 10 12 12 11 8 7 9 7 6 5 2 4 4 4 4 6 6 7 8 8 8 7 6 9 14 15 17 18 18 16 14 13 14 14 13 12 12 13
14 13 14 12 12 11 10 12 11 12 9 9 9 7 6 6 8 4 5 5 8 9 9 9 10 10 9 8 8 10 13 16 17 18 18 17 16 14 15 15 14 14 14
13 13 13 12 11 10 10 10 11 9 9 8 6 7 5 5 6 7 5 6 9 10 10 9 11 11 10 8 8 12 13 16 17 18 18 19 19 18 17 17 16 16 15
11 11 11 10 10 9 9 10 9 9 7 7 6 5 5 5 5 6 9 10 10 8 9 11 10 9 9 9 8 10 14 17 17 18 19 19 20 20 20 19 19 18 17
7 10 9 9 8 7 8 8 7 8 7 7 5 4 5 5 6 7 10 13 12 10 11 8 8 8 8 9 9 10 15 17 18 19 19 20 20 21 21 22 22 21 20
5 7 7 7 7 6 6 6 6 6 7 6 6 5 4 5 6 7 10 12 14 13 10 7 6 7 8 8 7 10 13 16 18 20 20 20 21 21 21 22 24 24 23
5 5 6 6 6 6 5 5 4 5 5 5 6 6 5 5 5 6 8 10 13 12 12 14 10 8 7 7 10 18 14 15 18 20 21 22 22 22 22 22 23 25 24
4 4 4 4 5 5 5 5 4 5 5 5 6 6 5 5 6 6 7 8 9 13 15 14 10 8 8 10 14 14 15 17 20 22 22 22 23 23 23 24 24 25 26
4 3 3 3 3 4 5 5 4 5 6 6 5 7 7 6 7 7 7 8 9 12 15 12 13 14 15 13 16 15 16 20 21 22 22 22 23 23 24 24 25 25 26
3 2 2 2 3 4 4 4 5 6 6 7 7 8 9 9 8 8 8 9 9 10 15 15 13 14 18 18 16 14 14 15 13 19 22 23 23 24 24 24 25 25 26
3 2 0 1 2 3 4 5 6 6 7 8 8 9 10 8 11 10 9 10 10 11 14 19 16 14 17 17 18 18 15 13 14 19 23 25 25 25 25 25 25 25 25
3 2 1 1 2 4 5 5 6 7 7 8 9 10 10 11 11 10 11 11 11 11 12 15 17 14 13 13 17 17 17 14 14 15 20 22 23 24 25 25 25 24 23
4 3 2 2 3 4 5 5 7 8 8 9 9 10 11 11 12 13 12 13 12 13 13 14 15 14 13 14 14 14 14 12 12 12 15 17 20 23 25 25 24 22 22
4 3 3 3 4 4 4 6 8 9 9 10 10 10 11 13 16 15 12 13 13 12 12 13 14 14 13 12 12 12 14 14 14 13 13 12 12 12 13 16 18 19 22
5 4 4 4 5 4 6 10 10 9 10 10 11 11 11 12 15 18 20 20 19 16 15 14 14 15 16 15 13 12 13 15 15 9 12 13 12 14 13 12 18 21 21
6 6 5 5 6 6 9 11 12 11 11 10 11 11 10 10 14 14 16 20 19 21 22 19 18 18 18 16 16 16 15 16 16 13 15 17 13 15 13 15 25 26 26
6 6 6 6 6 7 9 11 13 11 10 10 11 12 13 14 13 16 16 17 17 17 19 17 17 19 18 18 18 18 18 18 18 14 14 17 14 15 14 14 23 28 28
6 6 5 6 6 7 9 11 12 8 8 10 11 12 13 15 19 23 19 18 18 17 20 25 27 28 30 31 26 17 16 15 16 14 12 14 15 15 14 14 17 26 28
6 5 6 6 7 7 10 11 11 7 8 9 10 11 14 17 21 24 19 18 19 18 17 18 20 22 22 22 26 19 15 15 16 15 11 11 12 12 12 9 9 10 14
Wind_Direction
55 85 76 76 92 91 92 51 22 8 347 23 25 14 13 4 348 340 336 349 338 340 342 340 335 328 318 302 289 283 280 265 246 253 301 333 350 355 357 3 7 13 14
44 55 55 49 44 41 46 57 47 25 4 0 353 353 339 339 334 327 325 322 318 331 335 335 337 338 334 327 314 297 283 262 237 225 230 267 305 328 335 341 349 355 359
49 56 55 48 40 40 48 54 49 43 28 4 342 331 316 311 310 310 312 317 321 324 328 334 334 334 334 333 328 321 306 284 254 227 224 234 256 281 298 308 315 319 323
51 57 56 49 42 41 43 45 33 35 29 359 331 314 297 289 286 294 303 315 324 329 329 341 336 332 329 326 323 320 316 304 286 244 226 225 238 255 266 281 292 295 298
50 56 55 48 43 44 41 39 37 25 15 354 326 306 292 288 300 307 316 327 331 329 328 334 329 320 323 322 320 317 313 310 301 272 237 225 231 244 254 265 275 278 279
49 56 56 49 43 43 37 32 37 33 16 346 320 305 300 312 323 338 345 356 357 349 340 338 326 322 319 319 316 313 310 307 306 294 257 236 231 238 249 260 265 269 271
51 53 54 50 46 46 38 30 24 25 21 356 335 327 328 25 39 35 24 23 28 16 358 349 339 333 322 320 315 314 310 305 302 304 284 256 239 235 241 251 259 262 264
53 54 55 53 48 49 43 35 29 25 28 19 0 337 337 339 24 358 10 9 5 358 352 348 339 328 319 315 311 310 310 307 305 301 300 287 261 246 239 244 250 255 259
59 57 57 56 51 50 46 40 34 33 28 29 27 11 350 343 329 325 353 350 353 344 336 332 325 318 313 307 304 306 309 308 305 303 299 296 286 271 251 242 244 248 255
58 57 58 57 54 50 47 41 38 35 33 27 23 22 11 337 323 320 319 338 340 328 326 325 321 318 313 309 303 298 304 307 305 302 299 296 291 282 272 252 243 243 247
59 56 55 56 54 50 46 41 37 36 33 27 19 4 354 341 335 311 310 321 320 321 323 318 312 310 315 313 309 316 319 314 310 305 300 296 291 286 279 268 253 244 242
66 58 56 55 51 46 41 36 33 34 27 21 12 6 349 335 329 315 308 312 312 313 313 303 300 308 314 311 311 325 320 317 314 311 306 300 294 288 282 275 265 254 245
71 57 53 51 48 42 35 29 28 24 17 9 360 345 332 320 314 307 302 306 305 306 304 295 292 299 299 300 309 330 313 310 311 310 307 303 297 291 284 277 271 263 253
83 71 59 52 45 36 26 19 18 13 360 351 343 335 318 312 309 304 302 306 304 300 297 297 302 294 290 300 311 316 304 301 302 303 303 301 298 293 287 280 273 266 259
99 81 65 51 38 27 16 5 1 357 343 337 328 322 313 306 303 299 295 292 294 299 299 302 301 298 302 301 300 299 298 297 297 296 295 294 293 291 288 283 277 270 261
113 94 66 42 25 13 2 353 343 340 332 328 319 314 311 308 303 297 292 288 282 283 287 293 296 297 300 297 296 294 290 292 289 286 287 288 288 287 286 284 279 274 266
133 115 70 23 3 354 348 336 335 329 323 319 317 313 310 309 304 302 297 290 285 283 285 290 291 295 296 296 297 294 291 289 287 284 284 284 284 283 282 280 279 275 270
158 154 151 334 339 334 331 325 321 319 316 314 315 312 310 310 305 302 298 295 292 289 288 292 294 296 295 297 297 296 293 288 284 284 284 283 282 281 279 277 274 273 271
182 188 225 287 312 317 315 311 310 308 307 307 306 305 306 306 303 302 300 296 294 293 290 290 293 296 295 296 298 295 293 289 285 282 283 281 280 279 277 275 273 270 268
198 207 227 262 291 300 297 299 303 303 301 299 299 298 299 299 299 302 298 296 296 296 293 291 292 296 297 298 295 296 298 298 297 298 292 287 283 281 278 276 274 271 267
208 220 235 255 272 282 284 300 304 300 299 300 297 295 293 295 294 293 291 295 297 294 294 292 291 294 297 302 301 304 299 301 297 296 290 288 290 287 285 280 272 265 265
207 220 232 242 258 264 284 293 299 300 298 295 296 297 295 289 290 293 293 292 291 289 290 289 289 289 294 298 299 298 299 298 297 302 305 299 301 294 293 289 285 284 278
208 223 233 239 251 264 278 290 296 297 292 289 290 292 292 292 294 292 294 294 290 284 280 280 282 284 289 292 293 292 288 288 288 295 297 290 290 285 285 283 284 280 276
210 223 231 243 254 260 276 291 297 291 284 282 283 286 289 292 293 295 293 289 285 282 279 276 274 277 278 279 278 280 281 282 282 280 280 284 289 286 285 279 277 274 272
213 222 230 237 249 263 278 289 291 288 281 283 284 283 285 288 292 296 295 292 290 287 285 279 276 275 275 276 275 277 278 280 282 281 279 281 288 290 286 280 273 271 270
217 225 235 238 249 260 273 282 288 282 283 286 285 284 284 290 296 299 298 295 293 295 296 295 289 284 280 277 275 270 271 273 277 282 278 273 283 297 294 281 284 291 285